[Iaude] MPEC S156: 2017 SV13 [a=10.24,e=0.80,i=113.4,H=18.2]

mpec at mpcdb1.cfa.harvard.edu mpec at mpcdb1.cfa.harvard.edu
Wed Sep 27 07:45:16 EDT 2017


M.P.E.C. 2017-S156                               Issued 2017 Sept. 27, 11:42 UT
 
     The Minor Planet Electronic Circulars contain information on unusual
         minor planets and routine data on comets.  They are published
    on behalf of Division F of the International Astronomical Union by the
          Minor Planet Center, Smithsonian Astrophysical Observatory,
                          Cambridge, MA 02138, U.S.A.

             Prepared using the Tamkin Foundation Computer Network

                              MPC at CFA.HARVARD.EDU
            URL http://www.minorplanetcenter.net/    ISSN 1523-6714


                                   2017 SV13
 
Observations:
     K17S13V* C2017 09 17.48500 01 51 10.780+07 44 39.49         21.0 wLES156F51
     K17S13V  C2017 09 17.49706 01 51 07.081+07 44 52.25         21.1 wLES156F51
     K17S13V  C2017 09 17.50918 01 51 03.354+07 45 05.14         20.9 wLES156F51
     K17S13V  C2017 09 17.52129 01 50 59.621+07 45 17.91         21.0 wLES156F51
     K17S13V _C2017 09 18.43734101 46 17.708+08 01 24.80         20.7 GUES156568
     K17S13V _C2017 09 18.43828501 46 17.411+08 01 25.78         20.7 GUES156568
     K17S13V _C2017 09 18.43923101 46 17.114+08 01 26.79         20.8 GUES156568
     K17S13V KC2017 09 19.38900 01 41 18.00 +08 18 03.4                oES156691
     K17S13V KC2017 09 19.39733 01 41 15.30 +08 18 12.8                oES156691
     K17S13V KC2017 09 19.40567 01 41 12.71 +08 18 21.6                oES156691
     K17S13V  C2017 09 19.41834 01 41 08.55 +08 18 34.5          20.3 RoES156926
     K17S13V  C2017 09 19.42538 01 41 06.31 +08 18 42.0          20.5 RoES156926
     K17S13V  C2017 09 19.43259 01 41 03.98 +08 18 49.3          20.3 RoES156926
     K17S13V  C2017 09 19.54647 01 40 27.726+08 20 50.38         20.8 wLES156F51
     K17S13V  C2017 09 19.55924 01 40 23.612+08 21 03.73         20.9 wLES156F51
     K17S13V  C2017 09 19.57196 01 40 19.514+08 21 17.01         20.8 wLES156F51
     K17S13V  C2017 09 19.58468 01 40 15.423+08 21 30.29         20.9 wLES156F51
     K17S13V 1C2017 09 19.63433 01 39 59.85 +08 22 29.0                vES156Q62
     K17S13V 1C2017 09 19.63811 01 39 58.64 +08 22 32.9                vES156Q62
     K17S13V 1C2017 09 19.64189 01 39 57.43 +08 22 36.7          20.3 wvES156Q62
     K17S13V  C2017 09 20.26936 01 36 35.85 +08 33 22.1          21.0 VqES156I52
     K17S13V  C2017 09 20.27060 01 36 35.34 +08 33 23.9          21.4 VqES156I52
     K17S13V  C2017 09 20.27308 01 36 34.56 +08 33 26.6          20.9 VqES156I52
     K17S13V  C2017 09 20.33159 01 36 15.46 +08 34 28.2          20.1 RoES156926
     K17S13V  C2017 09 20.33849 01 36 13.21 +08 34 35.4          20.4 RoES156926
     K17S13V  C2017 09 20.34567 01 36 10.86 +08 34 42.8          20.3 RoES156926
     K17S13V KC2017 09 21.31830 01 30 52.56 +08 51 28.7          20.0 RoES156291
     K17S13V KC2017 09 21.32140 01 30 51.54 +08 51 32.1          19.9 RoES156291
     K17S13V KC2017 09 21.32449 01 30 50.51 +08 51 35.3          19.9 RoES156291
     K17S13V  C2017 09 21.38594 01 30 30.02 +08 52 38.7          20.2 RoES156926
     K17S13V  C2017 09 21.39414 01 30 27.28 +08 52 47.2          20.2 RoES156926
     K17S13V  C2017 09 21.40037 01 30 25.21 +08 52 53.6          20.1 RoES156926
     K17S13V KC2017 09 22.98286 01 21 34.83 +09 19 39.4          20.0 VqES156A71
     K17S13V KC2017 09 22.99072 01 21 32.17 +09 19 47.3          20.5 VqES156A71
     K17S13V  C2017 09 24.26272 01 14 16.77 +09 40 48.0          20.6 VqES156I52
     K17S13V  C2017 09 24.26397 01 14 16.31 +09 40 49.3                qES156I52
     K17S13V  C2017 09 24.26521 01 14 15.91 +09 40 51.1                qES156I52
     K17S13V  C2017 09 24.26645 01 14 15.47 +09 40 51.8                qES156I52
     K17S13V KC2017 09 25.61491 01 06 26.19 +10 02 29.4          20.6 RrES156P93
     K17S13V KC2017 09 25.62054 01 06 24.19 +10 02 34.8          20.6 RrES156P93
     K17S13V KC2017 09 25.62617 01 06 22.21 +10 02 39.9          20.2 RrES156P93
     K17S13V KC2017 09 25.63180 01 06 20.20 +10 02 45.6          20.2 RrES156P93
 
Observer details:
291 LPL/Spacewatch II.  Observer M. T. Read.  1.8-m f/2.7 reflector + CCD.
568 Mauna Kea.  Observers R. J. Wainscoat, C. Crowder.  Measurers M. Micheli,
    R. J. Wainscoat.  3.6-m Canada-France-Hawaii Telescope + CCD.
691 Steward Observatory, Kitt Peak.  Observer T. H. Bressi.  0.9-m f/3
    reflector + CCD.
926 Tenagra II Observatory.  Observers M. Schwartz, P. R. Holvorcem.  Measurer
    M. Schwartz.  0.81-m f/7 Ritchey-Chretien + CCD.
A71 Stixendorf.  Observers M. Jaeger, E. Prosperi, S. Prosperi, W. Vollmann.
    Measurer M. Jaeger.  0.3-m f/4 reflector + CCD.
F51 Pan-STARRS 1, Haleakala.  Observers J. Bulger, T. Lowe, A. Schultz,
    M. Willman.  Measurers K. Chambers, S. Chastel, L. Denneau, H. Flewelling,
    M. Huber, E. Lilly, E. Magnier, R. Wainscoat, C. Waters, R. Weryk.  1.8-m
    Ritchey-Chretien + CCD.
I52 Steward Observatory, Mt. Lemmon Station.  Observers R. G. Matheny,
    G. J. Leonard.  Measurers E. J. Christensen, D. C. Fuls, A. R. Gibbs,
    A. D. Grauer, J. A. Johnson, R. A. Kowalski, S. M. Larson, G. J. Leonard,
    R. G. Matheny, R. L. Seaman, F. C. Shelly.  1.0-m reflector + CCD.
P93 Space Tracking and Communications Center, JAXA.  Observers S. Okumura,
    S. Urakawa.  1.0-m f/3.0 reflector + CCD.
Q62 iTelescope Observatory, Siding Spring.  Observer H. Sato.  0.51-m f/6.8
    astrograph + CCD + f/4.5 focal reducer.
 
Orbital elements:
2017 SV13
Epoch 2017 Sept. 4.0 TT = JDT 2458000.5                 MPC
M   0.54009              (2000.0)            P               Q
n   0.03009416     Peri.  343.45746     +0.91569149     +0.35598397
a  10.2364148      Node    11.72111     +0.38404183     -0.63836944
e   0.8037044      Incl.  113.35305     -0.11841018     +0.68246602
P  32.75           H   18.2           G   0.15           U   6
Residuals in seconds of arc
170917 F51  0.1-  0.1+    170919 F51  0.1-  0.1+    170921 291  0.2+  0.1+
170917 F51  0.0   0.1+    170919 F51  0.1-  0.1+    170921 926  0.2+  0.2+
170917 F51  0.0   0.1+    170919 F51  0.0   0.1+    170921 926  0.1+  0.3+
170917 F51  0.1-  0.1+    170919 Q62  0.2-  0.0     170921 926  0.2+  0.3+
170918 568  0.1+  0.2-    170919 Q62  0.1-  0.1-    170922 A71  1.0-  0.7+
170918 568  0.1+  0.2-    170919 Q62  0.1+  0.2-    170922 A71  0.6-  0.7+
170918 568  0.1+  0.2-    170920 I52  1.1+  1.1-    170924 I52  0.4-  0.4-
170919 691  0.1+  0.5-    170920 I52  0.4-  0.6-    170924 I52  0.8-  0.3-
170919 691  0.3-  0.1+    170920 I52  0.0   0.5-    170924 I52  0.3-  0.2+
170919 691  1.0+  0.2+    170920 926  0.0   0.0     170924 I52  0.4-  0.3-
170919 926  0.3-  0.2-    170920 926  0.1+  0.0     170925 P93  0.6+  0.0
170919 926  0.0   0.1-    170920 926  0.1+  0.1-    170925 P93  0.4+  0.1+
170919 926  0.2-  0.3-    170921 291  0.0   0.1-    170925 P93  0.5+  0.2-
170919 F51  0.0   0.0     170921 291  0.2+  0.1+    170925 P93  0.2+  0.2+

Ephemeris:
2017 SV13                a,e,i = 10.24, 0.80, 113                q = 2.0094
Date    TT    R. A. (2000) Decl.     Delta      r     Elong.  Phase     V
2017 08 28    03 07 29.0 +02 13 47   1.4440  2.0129   108.9    28.3    21.8
...
2017 09 12    02 17 02.6 +06 08 28   1.1912  2.0290   134.7    20.7    21.1
...
2017 09 20    01 38 02.7 +08 28 45   1.1049  2.0429   151.1    13.7    20.8
...
2017 09 26    01 04 11.1 +10 08 34   1.0734  2.0556   163.9     7.8    20.5
2017 09 27    00 58 18.1 +10 23 57   1.0712  2.0579   165.9     6.8    20.4
2017 09 28    00 52 22.7 +10 38 50   1.0700  2.0603   167.7     5.9    20.4
...
2017 10 04    00 16 44.8 +11 56 07   1.0823  2.0755   170.5     4.6    20.4
...
2017 10 12    23 32 20.6 +13 03 04   1.1488  2.0987   155.6    11.3    20.8
...
2017 10 27    22 30 15.1 +13 45 10   1.3928  2.1505   127.8    21.4    21.6

A. U. Tomatic                (C) Copyright 2017 MPC           M.P.E.C. 2017-S156




More information about the Iaude mailing list